owner,sensor,date,latitude,longitude,vertical_datum,wind_speed,wind_to_direction,wind_speed_of_gust,qcFlag 
TABS,ioos:station:wmo:42046:1,2008-07-01T00:00:00Z,27.8903,-94.0367,4.0,1.344023809,323.4710196,2.72,'11111222,11111222,11111222' 
TABS,ioos:station:wmo:42046:1,2008-07-01T00:30:00Z,27.8903,-94.0367,4.0,3.404144533,95.22531408,4.48,'11111222,11111222,11111222' 
TABS,ioos:station:wmo:42046:1,2008-07-01T01:00:00Z,27.8903,-94.0367,4.0,2.578158257,98.47622255,3.71,'11111222,11111222,11111222' 
TABS,ioos:station:wmo:42046:1,2008-07-01T01:30:00Z,27.8903,-94.0367,4.0,2.000224987,90.85979115,3.01,'11111222,11111222,11111222' 
TABS,ioos:station:wmo:42046:1,2008-07-01T02:00:00Z,27.8903,-94.0367,4.0,2.270352396,99.37974402,3.26,'11111222,11111222,11111222' 
TABS,ioos:station:wmo:42046:1,2008-07-01T02:30:00Z,27.8903,-94.0367,4.0,1.911282292,122.609488,2.72,'11111222,11111222,11111222' 
TABS,ioos:station:wmo:42046:1,2008-07-01T03:00:00Z,27.8903,-94.0367,4.0,1.60178026,118.325337,2.62,'11111222,11111222,11111222' 
TABS,ioos:station:wmo:42046:1,2008-07-01T03:30:00Z,27.8903,-94.0367,4.0,1.597059799,118.0095321,2.74,'11111222,11111222,11111222' 
TABS,ioos:station:wmo:42046:1,2008-07-01T04:00:00Z,27.8903,-94.0367,4.0,1.747712791,132.9135433,2.6,'11111222,11111222,11111222' 
TABS,ioos:station:wmo:42046:1,2008-07-01T04:30:00Z,27.8903,-94.0367,4.0,0.891571646,113.1145748,2.17,'11111222,11111222,11111222' 
TABS,ioos:station:wmo:42046:1,2008-07-01T05:00:00Z,27.8903,-94.0367,4.0,1.626407083,106.429684,2.91,'11111222,11111222,11111222' 
TABS,ioos:station:wmo:42046:1,2008-07-01T05:30:00Z,27.8903,-94.0367,4.0,1.811987859,108.3353343,2.65,'11111222,11111222,11111222' 
TABS,ioos:station:wmo:42046:1,2008-07-01T06:00:00Z,27.8903,-94.0367,4.0,1.276322843,66.44737049,2.25,'11111222,11111222,11111222' 
TABS,ioos:station:wmo:42046:1,2008-07-01T06:30:00Z,27.8903,-94.0367,4.0,1.262101422,127.5966041,2.28,'11111222,11111222,11111222' 
TABS,ioos:station:wmo:42046:1,2008-07-01T07:00:00Z,27.8903,-94.0367,4.0,1.046518036,153.9249159,1.75,'11111222,11111222,11111222' 
TABS,ioos:station:wmo:42046:1,2008-07-01T07:30:00Z,27.8903,-94.0367,4.0,1.660481858,170.9917278,2.4,'11111222,11111222,11111222' 
TABS,ioos:station:wmo:42046:1,2008-07-01T08:00:00Z,27.8903,-94.0367,4.0,3.06804498,214.7779605,3.97,'11111222,11111222,11111222' 
TABS,ioos:station:wmo:42046:1,2008-07-01T08:30:00Z,27.8903,-94.0367,4.0,3.210763149,211.7596163,4.37,'11111222,11111222,11111222' 
TABS,ioos:station:wmo:42046:1,2008-07-01T09:00:00Z,27.8903,-94.0367,4.0,2.806599366,218.0541539,3.84,'11111222,11111222,11111222' 
TABS,ioos:station:wmo:42046:1,2008-07-01T09:30:00Z,27.8903,-94.0367,4.0,3.264000613,216.9051295,4.31,'11111222,11111222,11111222' 
TABS,ioos:station:wmo:42046:1,2008-07-01T10:00:00Z,27.8903,-94.0367,4.0,3.195074334,213.6404634,4.14,'11111222,11111222,11111222' 
TABS,ioos:station:wmo:42046:1,2008-07-01T10:30:00Z,27.8903,-94.0367,4.0,2.564156781,238.231547,3.67,'11111222,11111222,11111222' 
TABS,ioos:station:wmo:42046:1,2008-07-01T11:00:00Z,27.8903,-94.0367,4.0,2.894149271,242.1954223,3.9,'11111222,11111222,11111222' 
TABS,ioos:station:wmo:42046:1,2008-07-01T11:30:00Z,27.8903,-94.0367,4.0,2.406844407,250.5864202,3.19,'11111222,11111222,11111222' 
TABS,ioos:station:wmo:42046:1,2008-07-01T12:00:00Z,27.8903,-94.0367,4.0,1.597654531,249.8637437,2.56,'11111222,11111222,11111222' 
TABS,ioos:station:wmo:42046:1,2008-07-01T12:30:00Z,27.8903,-94.0367,4.0,1.441249458,272.3859385,2.35,'11111222,11111222,11111222' 
TABS,ioos:station:wmo:42046:1,2008-07-01T13:00:00Z,27.8903,-94.0367,4.0,1.590125781,293.340474,2.56,'11111222,11111222,11111222' 
TABS,ioos:station:wmo:42046:1,2008-07-01T13:30:00Z,27.8903,-94.0367,4.0,1.672423391,356.9149844,2.38,'11111222,11111222,11111222' 
TABS,ioos:station:wmo:42046:1,2008-07-01T14:00:00Z,27.8903,-94.0367,4.0,2.919246478,21.29089497,3.69,'11111222,11111222,11111222' 
TABS,ioos:station:wmo:42046:1,2008-07-01T14:30:00Z,27.8903,-94.0367,4.0,1.440138882,0.795511233,2.48,'11111222,11111222,11111222' 
TABS,ioos:station:wmo:42046:1,2008-07-01T15:00:00Z,27.8903,-94.0367,4.0,2.936205034,331.0779258,4.41,'11111222,11111222,11111222' 
TABS,ioos:station:wmo:42046:1,2008-07-01T15:30:00Z,27.8903,-94.0367,4.0,3.52567724,3.251727537,4.5,'11111222,11111222,11111222' 
TABS,ioos:station:wmo:42046:1,2008-07-01T16:00:00Z,27.8903,-94.0367,4.0,2.205651831,24.93815888,3.86,'11111222,11111222,11111222' 
TABS,ioos:station:wmo:42046:1,2008-07-01T16:30:00Z,27.8903,-94.0367,4.0,4.676162957,56.07170943,5.92,'11111222,11111222,11111222' 
TABS,ioos:station:wmo:42046:1,2008-07-01T17:00:00Z,27.8903,-94.0367,4.0,3.797472844,66.40481369,4.73,'11111222,11111222,11111222' 
TABS,ioos:station:wmo:42046:1,2008-07-01T17:30:00Z,27.8903,-94.0367,4.0,3.001283059,85.02984998,4.01,'11111222,11111222,11111222' 
TABS,ioos:station:wmo:42046:1,2008-07-01T18:00:00Z,27.8903,-94.0367,4.0,3.220465805,77.99183125,4.03,'11111222,11111222,11111222' 
TABS,ioos:station:wmo:42046:1,2008-07-01T18:30:00Z,27.8903,-94.0367,4.0,3.093169895,87.40543395,4.02,'11111222,11111222,11111222' 
TABS,ioos:station:wmo:42046:1,2008-07-01T19:00:00Z,27.8903,-94.0367,4.0,2.916196153,82.31406991,4.0,'11111222,11111222,11111222' 
TABS,ioos:station:wmo:42046:1,2008-07-01T19:30:00Z,27.8903,-94.0367,4.0,2.523885893,86.8197564,4.42,'11111222,11111222,11111222' 
TABS,ioos:station:wmo:42046:1,2008-07-01T20:00:00Z,27.8903,-94.0367,4.0,2.281863274,99.58655866,3.18,'11111222,11111222,11111222' 
TABS,ioos:station:wmo:42046:1,2008-07-01T20:30:00Z,27.8903,-94.0367,4.0,1.534438008,135.2643491,2.6,'11111222,11111222,11111222' 
TABS,ioos:station:wmo:42046:1,2008-07-01T21:00:00Z,27.8903,-94.0367,4.0,1.954737834,117.745245,3.02,'11111222,11111222,11111222' 
TABS,ioos:station:wmo:42046:1,2008-07-01T21:30:00Z,27.8903,-94.0367,4.0,2.472508847,156.6495353,3.51,'11111222,11111222,11111222' 
TABS,ioos:station:wmo:42046:1,2008-07-01T22:00:00Z,27.8903,-94.0367,4.0,2.05915031,166.233942,3.66,'11111222,11111222,11111222' 
TABS,ioos:station:wmo:42046:1,2008-07-01T22:30:00Z,27.8903,-94.0367,4.0,1.640030488,157.031039,2.38,'11111222,11111222,11111222' 
TABS,ioos:station:wmo:42046:1,2008-07-01T23:00:00Z,27.8903,-94.0367,4.0,1.17,202.6200225,1.95,'11111222,11111222,11111222' 
TABS,ioos:station:wmo:42046:1,2008-07-01T23:30:00Z,27.8903,-94.0367,4.0,1.180677771,181.9416923,2.02,'11111222,11111222,11111222' 
TABS,ioos:station:wmo:42046:1,2008-07-02T00:00:00Z,27.8903,-94.0367,4.0,1.014001972,185.0923137,1.8,'11111222,11111222,11111222' 
TABS,ioos:station:wmo:42046:1,2008-07-02T00:30:00Z,27.8903,-94.0367,4.0,1.297266357,139.0636722,2.61,'11111222,11111222,11111222' 
TABS,ioos:station:wmo:42046:1,2008-07-02T01:00:00Z,27.8903,-94.0367,4.0,5.129229962,214.8365789,6.68,'11111222,11111222,11111222' 
TABS,ioos:station:wmo:42046:1,2008-07-02T01:30:00Z,27.8903,-94.0367,4.0,1.385929291,225.0001052,2.05,'11111222,11111222,11111222' 
TABS,ioos:station:wmo:42046:1,2008-07-02T02:00:00Z,27.8903,-94.0367,4.0,0.88232647,125.3115518,1.6,'11111222,11111222,11111222' 
TABS,ioos:station:wmo:42046:1,2008-07-02T02:30:00Z,27.8903,-94.0367,4.0,0.931074648,155.9128145,1.68,'11111222,11111222,11111222' 
TABS,ioos:station:wmo:42046:1,2008-07-02T03:00:00Z,27.8903,-94.0367,4.0,1.382208378,144.125303,2.53,'11111222,11111222,11111222' 
TABS,ioos:station:wmo:42046:1,2008-07-02T03:30:00Z,27.8903,-94.0367,4.0,1.315902732,136.8479216,2.54,'11111222,11111222,11111222' 
TABS,ioos:station:wmo:42046:1,2008-07-02T04:00:00Z,27.8903,-94.0367,4.0,1.181397478,136.7152419,1.87,'11111222,11111222,11111222' 
TABS,ioos:station:wmo:42046:1,2008-07-02T04:30:00Z,27.8903,-94.0367,4.0,1.254950198,130.7997033,2.35,'11111222,11111222,11111222' 
TABS,ioos:station:wmo:42046:1,2008-07-02T05:00:00Z,27.8903,-94.0367,4.0,2.152324325,145.7933936,3.37,'11111222,11111222,11111222' 
TABS,ioos:station:wmo:42046:1,2008-07-02T05:30:00Z,27.8903,-94.0367,4.0,1.932045548,152.9047213,3.28,'11111222,11111222,11111222' 
TABS,ioos:station:wmo:42046:1,2008-07-02T06:00:00Z,27.8903,-94.0367,4.0,3.155724956,132.9457476,4.37,'11111222,11111222,11111222' 
TABS,ioos:station:wmo:42046:1,2008-07-02T06:30:00Z,27.8903,-94.0367,4.0,3.757286255,139.1012878,4.83,'11111222,11111222,11111222' 
TABS,ioos:station:wmo:42046:1,2008-07-02T07:00:00Z,27.8903,-94.0367,4.0,4.080012255,135.0996148,5.18,'11111222,11111222,11111222' 
TABS,ioos:station:wmo:42046:1,2008-07-02T07:30:00Z,27.8903,-94.0367,4.0,3.948936566,144.3782831,5.41,'11111222,11111222,11111222' 
TABS,ioos:station:wmo:42046:1,2008-07-02T08:00:00Z,27.8903,-94.0367,4.0,4.249058719,154.3398143,5.24,'11111222,11111222,11111222' 
TABS,ioos:station:wmo:42046:1,2008-07-02T08:30:00Z,27.8903,-94.0367,4.0,3.52676906,151.1823666,4.54,'11111222,11111222,11111222' 
TABS,ioos:station:wmo:42046:1,2008-07-02T09:00:00Z,27.8903,-94.0367,4.0,3.616807985,170.7723003,4.9,'11111222,11111222,11111222' 
TABS,ioos:station:wmo:42046:1,2008-07-02T09:30:00Z,27.8903,-94.0367,4.0,3.064979608,149.838036,4.04,'11111222,11111222,11111222' 
TABS,ioos:station:wmo:42046:1,2008-07-02T10:00:00Z,27.8903,-94.0367,4.0,3.072800026,163.7475022,4.37,'11111222,11111222,11111222' 
TABS,ioos:station:wmo:42046:1,2008-07-02T10:30:00Z,27.8903,-94.0367,4.0,3.242360251,157.7066334,4.67,'11111222,11111222,11111222' 
TABS,ioos:station:wmo:42046:1,2008-07-02T11:00:00Z,27.8903,-94.0367,4.0,3.155693268,149.5347368,4.69,'11111222,11111222,11111222' 
TABS,ioos:station:wmo:42046:1,2008-07-02T11:30:00Z,27.8903,-94.0367,4.0,3.541708627,159.1601989,5.52,'11111222,11111222,11111222' 
TABS,ioos:station:wmo:42046:1,2008-07-02T12:00:00Z,27.8903,-94.0367,4.0,4.043785355,159.5934636,5.48,'11111222,11111222,11111222' 
TABS,ioos:station:wmo:42046:1,2008-07-02T12:30:00Z,27.8903,-94.0367,4.0,4.114766093,160.5524972,5.53,'11111222,11111222,11111222' 
TABS,ioos:station:wmo:42046:1,2008-07-02T13:00:00Z,27.8903,-94.0367,4.0,4.115264269,169.7825581,6.32,'11111222,11111222,11111222' 
TABS,ioos:station:wmo:42046:1,2008-07-02T13:30:00Z,27.8903,-94.0367,4.0,3.787254943,196.5690009,5.16,'11111222,11111222,11111222' 
TABS,ioos:station:wmo:42046:1,2008-07-02T14:00:00Z,27.8903,-94.0367,4.0,3.549380228,189.5686626,4.83,'11111222,11111222,11111222' 
TABS,ioos:station:wmo:42046:1,2008-07-02T14:30:00Z,27.8903,-94.0367,4.0,2.307054399,186.97119,3.1,'11111222,11111222,11111222' 
TABS,ioos:station:wmo:42046:1,2008-07-02T15:00:00Z,27.8903,-94.0367,4.0,2.1,180.0002105,3.4,'11111222,11111222,11111222' 
TABS,ioos:station:wmo:42046:1,2008-07-02T15:30:00Z,27.8903,-94.0367,4.0,2.704902956,159.8904707,4.18,'11111222,11111222,11111222' 
TABS,ioos:station:wmo:42046:1,2008-07-02T16:00:00Z,27.8903,-94.0367,4.0,4.475634033,164.8461778,5.9,'11111222,11111222,11111222' 
TABS,ioos:station:wmo:42046:1,2008-07-02T16:30:00Z,27.8903,-94.0367,4.0,3.780595191,187.2943897,5.22,'11111222,11111222,11111222' 
TABS,ioos:station:wmo:42046:1,2008-07-02T17:00:00Z,27.8903,-94.0367,4.0,2.051048512,226.1853633,3.84,'11111222,11111222,11111222' 
TABS,ioos:station:wmo:42046:1,2008-07-02T17:30:00Z,27.8903,-94.0367,4.0,3.457658167,183.8142764,4.92,'11111222,11111222,11111222' 
TABS,ioos:station:wmo:42046:1,2008-07-02T18:00:00Z,27.8903,-94.0367,4.0,4.869876795,183.6499265,5.88,'11111222,11111222,11111222' 
TABS,ioos:station:wmo:42046:1,2008-07-02T18:30:00Z,27.8903,-94.0367,4.0,8.531195696,173.1334476,9.85,'11111222,11111222,11111222' 
TABS,ioos:station:wmo:42046:1,2008-07-02T19:00:00Z,27.8903,-94.0367,4.0,4.618495426,202.4005366,6.23,'11111222,11111222,11111222' 
TABS,ioos:station:wmo:42046:1,2008-07-02T19:30:00Z,27.8903,-94.0367,4.0,8.876513955,251.5446826,10.42,'11111222,11111222,11111222' 
TABS,ioos:station:wmo:42046:1,2008-07-02T20:00:00Z,27.8903,-94.0367,4.0,6.958713962,265.797068,8.4,'11111222,11111222,11111222' 
TABS,ioos:station:wmo:42046:1,2008-07-02T20:30:00Z,27.8903,-94.0367,4.0,5.216761447,258.3885407,5.98,'11111222,11111222,11111222' 
TABS,ioos:station:wmo:42046:1,2008-07-02T21:00:00Z,27.8903,-94.0367,4.0,5.754207157,267.8088875,7.33,'11111222,11111222,11111222' 
TABS,ioos:station:wmo:42046:1,2008-07-02T21:30:00Z,27.8903,-94.0367,4.0,3.679252642,260.6145037,4.84,'11111222,11111222,11111222' 
TABS,ioos:station:wmo:42046:1,2008-07-02T22:00:00Z,27.8903,-94.0367,4.0,3.078473648,254.744917,4.19,'11111222,11111222,11111222' 
TABS,ioos:station:wmo:42046:1,2008-07-02T22:30:00Z,27.8903,-94.0367,4.0,3.176051007,212.7895558,3.95,'11111222,11111222,11111222' 
TABS,ioos:station:wmo:42046:1,2008-07-02T23:00:00Z,27.8903,-94.0367,4.0,6.290643846,179.1804559,11.98,'11111222,11111222,11111222' 
TABS,ioos:station:wmo:42046:1,2008-07-02T23:30:00Z,27.8903,-94.0367,4.0,7.274647758,172.9729015,8.37,'11111222,11111222,11111222' 
TABS,ioos:station:wmo:42046:1,2008-07-03T00:00:00Z,27.8903,-94.0367,4.0,5.393199421,168.7736435,7.05,'11111222,11111222,11111222' 
TABS,ioos:station:wmo:42046:1,2008-07-03T00:30:00Z,27.8903,-94.0367,4.0,5.450110091,173.044724,7.37,'11111222,11111222,11111222' 
TABS,ioos:station:wmo:42046:1,2008-07-03T01:00:00Z,27.8903,-94.0367,4.0,6.012694903,165.4555403,7.24,'11111222,11111222,11111222' 
TABS,ioos:station:wmo:42046:1,2008-07-03T01:30:00Z,27.8903,-94.0367,4.0,6.426079676,143.4157158,7.71,'11111222,11111222,11111222' 
TABS,ioos:station:wmo:42046:1,2008-07-03T02:00:00Z,27.8903,-94.0367,4.0,5.066754385,137.2397864,6.74,'11111222,11111222,11111222' 
TABS,ioos:station:wmo:42046:1,2008-07-03T02:30:00Z,27.8903,-94.0367,4.0,4.734659439,131.061026,6.19,'11111222,11111222,11111222' 
TABS,ioos:station:wmo:42046:1,2008-07-03T03:00:00Z,27.8903,-94.0367,4.0,3.890822535,113.7983835,5.63,'11111222,11111222,11111222' 
TABS,ioos:station:wmo:42046:1,2008-07-03T03:30:00Z,27.8903,-94.0367,4.0,4.455389994,119.4421683,5.95,'11111222,11111222,11111222' 
TABS,ioos:station:wmo:42046:1,2008-07-03T04:00:00Z,27.8903,-94.0367,4.0,3.7,143.130399,4.93,'11111222,11111222,11111222' 
TABS,ioos:station:wmo:42046:1,2008-07-03T04:30:00Z,27.8903,-94.0367,4.0,3.271238298,144.7069454,4.45,'11111222,11111222,11111222' 
TABS,ioos:station:wmo:42046:1,2008-07-03T05:00:00Z,27.8903,-94.0367,4.0,3.126979373,136.8145034,4.28,'11111222,11111222,11111222' 
TABS,ioos:station:wmo:42046:1,2008-07-03T05:30:00Z,27.8903,-94.0367,4.0,2.495375723,162.509254,3.45,'11111222,11111222,11111222' 
TABS,ioos:station:wmo:42046:1,2008-07-03T06:00:00Z,27.8903,-94.0367,4.0,3.325432303,174.4782153,4.54,'11111222,11111222,11111222' 
TABS,ioos:station:wmo:42046:1,2008-07-03T06:30:00Z,27.8903,-94.0367,4.0,4.091222311,181.4008029,5.23,'11111222,11111222,11111222' 
TABS,ioos:station:wmo:42046:1,2008-07-03T07:00:00Z,27.8903,-94.0367,4.0,4.165153058,172.551028,5.29,'11111222,11111222,11111222' 
TABS,ioos:station:wmo:42046:1,2008-07-03T07:30:00Z,27.8903,-94.0367,4.0,4.610910973,169.2508139,5.93,'11111222,11111222,11111222' 
TABS,ioos:station:wmo:42046:1,2008-07-03T08:00:00Z,27.8903,-94.0367,4.0,5.614160667,167.4492931,7.16,'11111222,11111222,11111222' 
TABS,ioos:station:wmo:42046:1,2008-07-03T08:30:00Z,27.8903,-94.0367,4.0,5.662199219,168.0750995,7.34,'11111222,11111222,11111222' 
TABS,ioos:station:wmo:42046:1,2008-07-03T09:00:00Z,27.8903,-94.0367,4.0,5.151902561,181.5573785,6.65,'11111222,11111222,11111222' 
TABS,ioos:station:wmo:42046:1,2008-07-03T09:30:00Z,27.8903,-94.0367,4.0,4.680940077,165.9046261,6.24,'11111222,11111222,11111222' 
TABS,ioos:station:wmo:42046:1,2008-07-03T10:00:00Z,27.8903,-94.0367,4.0,4.674120238,166.7667405,6.13,'11111222,11111222,11111222' 
TABS,ioos:station:wmo:42046:1,2008-07-03T10:30:00Z,27.8903,-94.0367,4.0,3.552759491,170.1137023,5.41,'11111222,11111222,11111222' 
TABS,ioos:station:wmo:42046:1,2008-07-03T11:00:00Z,27.8903,-94.0367,4.0,4.382442241,175.6817333,6.19,'11111222,11111222,11111222' 
TABS,ioos:station:wmo:42046:1,2008-07-03T11:30:00Z,27.8903,-94.0367,4.0,4.373602634,168.1250742,5.78,'11111222,11111222,11111222' 
TABS,ioos:station:wmo:42046:1,2008-07-03T12:00:00Z,27.8903,-94.0367,4.0,4.24699894,157.7228606,5.66,'11111222,11111222,11111222' 
TABS,ioos:station:wmo:42046:1,2008-07-03T12:30:00Z,27.8903,-94.0367,4.0,9.692275275,181.2417174,13.29,'11111222,11111222,11111222' 
TABS,ioos:station:wmo:42046:1,2008-07-03T13:00:00Z,27.8903,-94.0367,4.0,8.10469617,167.0957031,10.24,'11111222,11111222,11111222' 
TABS,ioos:station:wmo:42046:1,2008-07-03T13:30:00Z,27.8903,-94.0367,4.0,4.95682358,176.9935052,6.52,'11111222,11111222,11111222' 
TABS,ioos:station:wmo:42046:1,2008-07-03T14:00:00Z,27.8903,-94.0367,4.0,3.237607141,215.0646382,4.56,'11111222,11111222,11111222' 
TABS,ioos:station:wmo:42046:1,2008-07-03T14:30:00Z,27.8903,-94.0367,4.0,2.352126697,214.4333793,3.64,'11111222,11111222,11111222' 
TABS,ioos:station:wmo:42046:1,2008-07-03T15:00:00Z,27.8903,-94.0367,4.0,2.331179959,189.3816987,3.45,'11111222,11111222,11111222' 
TABS,ioos:station:wmo:42046:1,2008-07-03T15:30:00Z,27.8903,-94.0367,4.0,3.042367499,177.7397138,4.24,'11111222,11111222,11111222' 
TABS,ioos:station:wmo:42046:1,2008-07-03T16:00:00Z,27.8903,-94.0367,4.0,2.758785965,175.4262999,3.9,'11111222,11111222,11111222' 
TABS,ioos:station:wmo:42046:1,2008-07-03T16:30:00Z,27.8903,-94.0367,4.0,4.730835021,176.121695,6.1,'11111222,11111222,11111222' 
TABS,ioos:station:wmo:42046:1,2008-07-03T17:00:00Z,27.8903,-94.0367,4.0,5.334538406,182.3637923,7.15,'11111222,11111222,11111222' 
TABS,ioos:station:wmo:42046:1,2008-07-03T17:30:00Z,27.8903,-94.0367,4.0,10.55492302,201.801569,13.48,'11111222,11111222,11111222' 
TABS,ioos:station:wmo:42046:1,2008-07-03T18:00:00Z,27.8903,-94.0367,4.0,5.842268395,217.4192273,8.41,'11111222,11111222,11111222' 
TABS,ioos:station:wmo:42046:1,2008-07-03T18:30:00Z,27.8903,-94.0367,4.0,6.396561576,205.3633693,8.8,'11111222,11111222,11111222' 
TABS,ioos:station:wmo:42046:1,2008-07-03T19:00:00Z,27.8903,-94.0367,4.0,8.002312166,210.5709602,10.09,'11111222,11111222,11111222' 
TABS,ioos:station:wmo:42046:1,2008-07-03T19:30:00Z,27.8903,-94.0367,4.0,7.512423045,197.1085068,9.33,'11111222,11111222,11111222' 
TABS,ioos:station:wmo:42046:1,2008-07-03T20:00:00Z,27.8903,-94.0367,4.0,7.67609927,186.2826879,9.56,'11111222,11111222,11111222' 
TABS,ioos:station:wmo:42046:1,2008-07-03T20:30:00Z,27.8903,-94.0367,4.0,7.641289158,184.278138,9.71,'11111222,11111222,11111222' 
TABS,ioos:station:wmo:42046:1,2008-07-03T21:00:00Z,27.8903,-94.0367,4.0,8.146287498,177.748961,10.87,'11111222,11111222,11111222' 
TABS,ioos:station:wmo:42046:1,2008-07-03T21:30:00Z,27.8903,-94.0367,4.0,8.940453009,179.4234281,10.78,'11111222,11111222,11111222' 
TABS,ioos:station:wmo:42046:1,2008-07-03T22:00:00Z,27.8903,-94.0367,4.0,7.819469291,172.3571646,10.28,'11111222,11111222,11111222' 
TABS,ioos:station:wmo:42046:1,2008-07-03T22:30:00Z,27.8903,-94.0367,4.0,6.674563656,173.3756432,7.99,'11111222,11111222,11111222' 
TABS,ioos:station:wmo:42046:1,2008-07-03T23:00:00Z,27.8903,-94.0367,4.0,5.603891505,187.1759367,7.14,'11111222,11111222,11111222' 
TABS,ioos:station:wmo:42046:1,2008-07-03T23:30:00Z,27.8903,-94.0367,4.0,5.606068141,185.5277377,6.96,'11111222,11111222,11111222' 
TABS,ioos:station:wmo:42046:1,2008-07-04T00:00:00Z,27.8903,-94.0367,4.0,4.870523586,176.2330953,6.07,'11111222,11111222,11111222' 
TABS,ioos:station:wmo:42046:1,2008-07-04T00:30:00Z,27.8903,-94.0367,4.0,4.200440453,189.7316075,5.64,'11111222,11111222,11111222' 
TABS,ioos:station:wmo:42046:1,2008-07-04T01:00:00Z,27.8903,-94.0367,4.0,3.967883567,194.0013993,5.08,'11111222,11111222,11111222' 
TABS,ioos:station:wmo:42046:1,2008-07-04T01:30:00Z,27.8903,-94.0367,4.0,3.820366475,197.6762778,5.01,'11111222,11111222,11111222' 
TABS,ioos:station:wmo:42046:1,2008-07-04T02:00:00Z,27.8903,-94.0367,4.0,3.712478956,188.6759501,5.02,'11111222,11111222,11111222' 
TABS,ioos:station:wmo:42046:1,2008-07-04T02:30:00Z,27.8903,-94.0367,4.0,4.45028089,179.3564662,5.69,'11111222,11111222,11111222' 
TABS,ioos:station:wmo:42046:1,2008-07-04T03:00:00Z,27.8903,-94.0367,4.0,3.893096454,166.7850027,5.95,'11111222,11111222,11111222' 
TABS,ioos:station:wmo:42046:1,2008-07-04T03:30:00Z,27.8903,-94.0367,4.0,3.729235847,157.2858512,5.25,'11111222,11111222,11111222' 
TABS,ioos:station:wmo:42046:1,2008-07-04T04:00:00Z,27.8903,-94.0367,4.0,4.023145536,169.8355061,5.21,'11111222,11111222,11111222' 
TABS,ioos:station:wmo:42046:1,2008-07-04T04:30:00Z,27.8903,-94.0367,4.0,3.054832238,171.339627,4.15,'11111222,11111222,11111222' 
TABS,ioos:station:wmo:42046:1,2008-07-04T05:00:00Z,27.8903,-94.0367,4.0,3.411187477,178.4883597,4.47,'11111222,11111222,11111222' 
TABS,ioos:station:wmo:42046:1,2008-07-04T05:30:00Z,27.8903,-94.0367,4.0,3.258481241,170.1042987,4.54,'11111222,11111222,11111222' 
TABS,ioos:station:wmo:42046:1,2008-07-04T06:00:00Z,27.8903,-94.0367,4.0,3.153363284,185.2768776,4.8,'11111222,11111222,11111222' 
TABS,ioos:station:wmo:42046:1,2008-07-04T06:30:00Z,27.8903,-94.0367,4.0,1.863169343,190.8276382,3.65,'11111222,11111222,11111222' 
TABS,ioos:station:wmo:42046:1,2008-07-04T07:00:00Z,27.8903,-94.0367,4.0,1.960229578,180.8771161,3.18,'11111222,11111222,11111222' 
TABS,ioos:station:wmo:42046:1,2008-07-04T07:30:00Z,27.8903,-94.0367,4.0,2.936017711,172.3668977,4.02,'11111222,11111222,11111222' 
TABS,ioos:station:wmo:42046:1,2008-07-04T08:00:00Z,27.8903,-94.0367,4.0,3.397175297,167.7641276,4.39,'11111222,11111222,11111222' 
TABS,ioos:station:wmo:42046:1,2008-07-04T08:30:00Z,27.8903,-94.0367,4.0,2.893872838,160.626116,4.28,'11111222,11111222,11111222' 
TABS,ioos:station:wmo:42046:1,2008-07-04T09:00:00Z,27.8903,-94.0367,4.0,2.95160973,153.4352214,4.27,'11111222,11111222,11111222' 
TABS,ioos:station:wmo:42046:1,2008-07-04T09:30:00Z,27.8903,-94.0367,4.0,3.500771344,159.0802539,6.06,'11111222,11111222,11111222' 
TABS,ioos:station:wmo:42046:1,2008-07-04T10:00:00Z,27.8903,-94.0367,4.0,3.474377642,158.3825894,4.89,'11111222,11111222,11111222' 
TABS,ioos:station:wmo:42046:1,2008-07-04T10:30:00Z,27.8903,-94.0367,4.0,3.416577235,163.1564413,4.66,'11111222,11111222,11111222' 
TABS,ioos:station:wmo:42046:1,2008-07-04T11:00:00Z,27.8903,-94.0367,4.0,4.570525134,153.4912837,5.85,'11111222,11111222,11111222' 
TABS,ioos:station:wmo:42046:1,2008-07-04T11:30:00Z,27.8903,-94.0367,4.0,4.515152268,141.8359459,5.93,'11111222,11111222,11111222' 
TABS,ioos:station:wmo:42046:1,2008-07-04T12:00:00Z,27.8903,-94.0367,4.0,4.719586846,150.5565557,6.16,'11111222,11111222,11111222' 
TABS,ioos:station:wmo:42046:1,2008-07-04T12:30:00Z,27.8903,-94.0367,4.0,4.690511699,149.2250671,6.08,'11111222,11111222,11111222' 
TABS,ioos:station:wmo:42046:1,2008-07-04T13:00:00Z,27.8903,-94.0367,4.0,5.181196773,145.6968014,6.52,'11111222,11111222,11111222' 
TABS,ioos:station:wmo:42046:1,2008-07-04T13:30:00Z,27.8903,-94.0367,4.0,5.031818757,145.3627506,6.73,'11111222,11111222,11111222' 
TABS,ioos:station:wmo:42046:1,2008-07-04T14:00:00Z,27.8903,-94.0367,4.0,5.871805514,150.2917077,7.61,'11111222,11111222,11111222' 
TABS,ioos:station:wmo:42046:1,2008-07-04T14:30:00Z,27.8903,-94.0367,4.0,5.636026969,146.874137,7.34,'11111222,11111222,11111222' 
TABS,ioos:station:wmo:42046:1,2008-07-04T15:00:00Z,27.8903,-94.0367,4.0,4.923921202,147.4398486,6.36,'11111222,11111222,11111222' 
TABS,ioos:station:wmo:42046:1,2008-07-04T15:30:00Z,27.8903,-94.0367,4.0,5.609001694,152.3844621,7.36,'11111222,11111222,11111222' 
TABS,ioos:station:wmo:42046:1,2008-07-04T16:00:00Z,27.8903,-94.0367,4.0,5.531093924,144.2699451,6.84,'11111222,11111222,11111222' 
TABS,ioos:station:wmo:42046:1,2008-07-04T16:30:00Z,27.8903,-94.0367,4.0,5.14895135,154.828759,6.21,'11111222,11111222,11111222' 
TABS,ioos:station:wmo:42046:1,2008-07-04T17:00:00Z,27.8903,-94.0367,4.0,5.125436567,146.2172094,6.41,'11111222,11111222,11111222' 
TABS,ioos:station:wmo:42046:1,2008-07-04T17:30:00Z,27.8903,-94.0367,4.0,4.754387447,149.8219153,5.95,'11111222,11111222,11111222' 
TABS,ioos:station:wmo:42046:1,2008-07-04T18:00:00Z,27.8903,-94.0367,4.0,5.038114727,142.7437332,6.34,'11111222,11111222,11111222' 
TABS,ioos:station:wmo:42046:1,2008-07-04T18:30:00Z,27.8903,-94.0367,4.0,4.992684649,148.3476734,6.37,'11111222,11111222,11111222' 